Hourly Weather Kozinka

Today, 26 October, Monday

Time Temperature Precipitation Wind Pressure Humidity
00:00 +8°C° 0 mm 2 mps 757 mmHg 83%
01:00 +8°C° 0 mm 2 mps 757 mmHg 84%
02:00 +7°C° 0 mm 2 mps 758 mmHg 85%
03:00 +7°C° 0 mm 2 mps 758 mmHg 86%
04:00 +7°C° 0 mm 2 mps 758 mmHg 87%
05:00 +6°C° 0 mm 2 mps 758 mmHg 87%
06:00 +6°C° 0 mm 2 mps 759 mmHg 88%
07:00 +7°C° 0 mm 2 mps 759 mmHg 82%
08:00 +8°C° 0 mm 2 mps 759 mmHg 76%
09:00 +10°C° 0 mm 1 mps 759 mmHg 70%
10:00 +12°C° 0 mm 1 mps 759 mmHg 63%
11:00 +14°C° 0 mm 1 mps 759 mmHg 56%
12:00 +15°C° 0 mm 1 mps 759 mmHg 50%
13:00 +15°C° 0 mm 2 mps 759 mmHg 47%
14:00 +16°C° 0 mm 2 mps 759 mmHg 45%
15:00 +16°C° 0 mm 2 mps 759 mmHg 43%
16:00 +15°C° 0 mm 2 mps 759 mmHg 48%
17:00 +13°C° 0 mm 2 mps 759 mmHg 53%
18:00 +12°C° 0 mm 2 mps 759 mmHg 58%
19:00 +10°C° 0 mm 2 mps 759 mmHg 60%
20:00 +10°C° 0 mm 2 mps 759 mmHg 61%
21:00 +9°C° 0 mm 3 mps 760 mmHg 63%
22:00 +9°C° 0 mm 3 mps 760 mmHg 64%
23:00 +9°C° 0 mm 3 mps 760 mmHg 65%

Tomorrow, 27 October, Tuesday

Time Temperature Precipitation Wind Pressure Humidity
00:00 +9°C° 0 mm 3 mps 760 mmHg 65%
01:00 +8°C° 0 mm 3 mps 760 mmHg 65%
02:00 +8°C° 0 mm 3 mps 760 mmHg 65%
03:00 +8°C° 0 mm 3 mps 760 mmHg 65%
04:00 +8°C° 0 mm 3 mps 760 mmHg 65%
05:00 +8°C° 0 mm 3 mps 760 mmHg 66%
06:00 +8°C° 0 mm 3 mps 761 mmHg 67%
07:00 +7°C° 0 mm 4 mps 761 mmHg 64%
08:00 +8°C° 0 mm 5 mps 761 mmHg 61%
09:00 +9°C° 0 mm 5 mps 761 mmHg 57%
10:00 +10°C° 0 mm 5 mps 761 mmHg 53%
11:00 +11°C° 0 mm 6 mps 762 mmHg 49%
12:00 +13°C° 0 mm 6 mps 762 mmHg 45%
13:00 +13°C° 0 mm 6 mps 762 mmHg 45%
14:00 +13°C° 0 mm 6 mps 762 mmHg 44%
15:00 +13°C° 0 mm 6 mps 762 mmHg 44%
16:00 +12°C° 0 mm 5 mps 762 mmHg 48%
17:00 +10°C° 0 mm 5 mps 762 mmHg 52%
18:00 +9°C° 0 mm 5 mps 762 mmHg 57%
19:00 +8°C° 0 mm 5 mps 762 mmHg 59%
20:00 +8°C° 0 mm 5 mps 763 mmHg 62%
21:00 +8°C° 0 mm 6 mps 763 mmHg 65%
22:00 +7°C° 0 mm 6 mps 763 mmHg 65%
23:00 +7°C° 0 mm 6 mps 763 mmHg 66%

Day after tomorrow, 28 October, Wednesday

Time Temperature Precipitation Wind Pressure Humidity
00:00 +7°C° 0 mm 6 mps 763 mmHg 66%
01:00 +5°C° 0 mm 6 mps 763 mmHg 66%
02:00 +4°C° 0 mm 6 mps 763 mmHg 66%
03:00 +4°C° 0 mm 6 mps 763 mmHg 67%
04:00 +4°C° 0 mm 6 mps 763 mmHg 65%
05:00 +3°C° 0 mm 6 mps 763 mmHg 63%
06:00 +3°C° 0 mm 6 mps 763 mmHg 61%
07:00 +3°C° 0 mm 6 mps 763 mmHg 54%
08:00 +4°C° 0 mm 7 mps 764 mmHg 47%
09:00 +5°C° 0 mm 8 mps 764 mmHg 41%
10:00 +6°C° 0 mm 8 mps 764 mmHg 36%
11:00 +7°C° 0 mm 8 mps 764 mmHg 31%
12:00 +10°C° 0 mm 8 mps 763 mmHg 26%
13:00 +10°C° 0 mm 8 mps 763 mmHg 26%
14:00 +10°C° 0 mm 8 mps 763 mmHg 25%
15:00 +10°C° 0 mm 8 mps 763 mmHg 24%
16:00 +9°C° 0 mm 8 mps 763 mmHg 27%
17:00 +8°C° 0 mm 7 mps 763 mmHg 30%
18:00 +7°C° 0 mm 6 mps 763 mmHg 33%
19:00 +5°C° 0 mm 7 mps 763 mmHg 35%
20:00 +5°C° 0 mm 7 mps 763 mmHg 38%
21:00 +5°C° 0 mm 7 mps 763 mmHg 40%
22:00 +5°C° 0 mm 7 mps 762 mmHg 44%
23:00 +5°C° 0 mm 7 mps 762 mmHg 48%

29 October, Thursday

Time Temperature Precipitation Wind Pressure Humidity
00:00 +4°C° 0 mm 7 mps 762 mmHg 52%
01:00 +4°C° 0 mm 7 mps 762 mmHg 57%
02:00 +4°C° 0 mm 7 mps 762 mmHg 62%
03:00 +3°C° 0 mm 7 mps 761 mmHg 67%
04:00 +3°C° 0 mm 7 mps 761 mmHg 70%
05:00 +3°C° 0 mm 7 mps 761 mmHg 74%
06:00 +3°C° 0 mm 7 mps 761 mmHg 77%
07:00 +4°C° 0 mm 7 mps 761 mmHg 72%
08:00 +5°C° 0 mm 8 mps 761 mmHg 67%
09:00 +6°C° 0 mm 8 mps 761 mmHg 62%
10:00 +7°C° 0 mm 8 mps 761 mmHg 57%
11:00 +8°C° 0 mm 9 mps 761 mmHg 51%
12:00 +11°C° 0 mm 9 mps 761 mmHg 46%
13:00 +11°C° 0 mm 9 mps 760 mmHg 45%
14:00 +11°C° 0 mm 9 mps 760 mmHg 43%
15:00 +12°C° 0 mm 9 mps 760 mmHg 42%
16:00 +11°C° 0 mm 8 mps 760 mmHg 42%
17:00 +10°C° 0 mm 7 mps 760 mmHg 43%
18:00 +10°C° 0 mm 6 mps 760 mmHg 43%
19:00 +10°C° 0 mm 7 mps 760 mmHg 44%
20:00 +9°C° 0 mm 7 mps 759 mmHg 45%
21:00 +9°C° 0 mm 7 mps 759 mmHg 46%
22:00 +9°C° 0 mm 7 mps 759 mmHg 52%
23:00 +8°C° 0 mm 6 mps 759 mmHg 58%

30 October, Friday

Time Temperature Precipitation Wind Pressure Humidity
00:00 +8°C° 0 mm 6 mps 759 mmHg 64%
01:00 +8°C° 0 mm 6 mps 759 mmHg 65%
02:00 +8°C° 0 mm 6 mps 759 mmHg 66%
03:00 +7°C° 0 mm 6 mps 759 mmHg 68%
04:00 +7°C° 0 mm 6 mps 759 mmHg 67%
05:00 +7°C° 0 mm 5 mps 759 mmHg 67%
06:00 +7°C° 0 mm 5 mps 759 mmHg 67%
07:00 +8°C° 0 mm 6 mps 759 mmHg 66%
08:00 +8°C° 0 mm 6 mps 759 mmHg 65%
09:00 +9°C° 0 mm 7 mps 759 mmHg 63%
10:00 +10°C° 0 mm 7 mps 759 mmHg 62%
11:00 +11°C° 0 mm 7 mps 758 mmHg 61%
12:00 +12°C° 0 mm 7 mps 758 mmHg 59%
13:00 +12°C° 0 mm 7 mps 758 mmHg 60%
14:00 +14°C° 0 mm 6 mps 758 mmHg 61%
15:00 +14°C° 0 mm 6 mps 758 mmHg 62%
16:00 +13°C° 0 mm 5 mps 758 mmHg 65%
17:00 +13°C° 0 mm 5 mps 758 mmHg 68%
18:00 +12°C° 0 mm 4 mps 758 mmHg 71%
19:00 +12°C° 0 mm 4 mps 757 mmHg 71%
20:00 +12°C° 0 mm 4 mps 757 mmHg 71%
21:00 +12°C° 0 mm 4 mps 757 mmHg 70%
22:00 +11°C° 0.2 mm 4 mps 757 mmHg 72%
23:00 +11°C° 0.2 mm 4 mps 757 mmHg 73%

31 October, Saturday

Time Temperature Precipitation Wind Pressure Humidity
00:00 +11°C° 0.2 mm 4 mps 757 mmHg 75%
01:00 +11°C° 0.7 mm 4 mps 757 mmHg 77%
02:00 +11°C° 0.7 mm 4 mps 756 mmHg 79%
03:00 +11°C° 0.7 mm 3 mps 756 mmHg 82%
04:00 +11°C° 0.1 mm 3 mps 756 mmHg 82%
05:00 +11°C° 0.1 mm 3 mps 756 mmHg 83%
06:00 +11°C° 0.1 mm 3 mps 756 mmHg 83%
07:00 +11°C° 0.5 mm 3 mps 757 mmHg 84%
08:00 +11°C° 0.5 mm 3 mps 757 mmHg 86%
09:00 +11°C° 0.5 mm 3 mps 757 mmHg 87%
Show more